Tracking 19574 objects as of 16-Feb-2019
HD Live streaming from Space Station
objects crossing your sky now

SL-16 DEB

Track SL-16 DEB now!
10-day predictions


NORAD ID: 39906
Int'l Code: 1993-016CG
Perigee: 740.9 km
Apogee: 927.7 km
Inclination: 71.0 °
Period: 101.4 minutes
Semi major axis: 7205 km
RCS: Unknown
Launch date: March 26, 1993
Source: Commonwealth of Independent States (former USSR) (CIS)
Launch site: TYURATAM MISSILE AND SPACE COMPLEX (TTMTR)

Note: This is SATELLITE DEBRIS
aabbcc
Your satellite tracking list
Your tracking list is empty




NASA's NSSDC Master Catalog

Two Line Element Set (TLE):
1 39906U 93016CG  19046.73002368  .00001407  00000-0  63547-3 0  9995
2 39906  70.9738 189.6268 0129583 285.0194  73.6619 14.19460490745972
Source of the keplerian elements: AFSPC